星链-3989 (STARLINK-3989 )

导读 | 星芒AI

STARLINK-3989 是 SpaceX 星链计划中的一颗低轨卫星,属于第 17 批组网发射的星链卫星之一。该卫星于 2022 年 10 月 31 日由猎鹰 9 号火箭送入近地轨道,旨在为全球提供高速互联网服务。星链卫星采用先进推进系统和激光通信技术,具备自主避障能力。STARLINK-3989 与其他星链卫星协同工作,提升网络覆盖与连接稳定性,主要服务于偏远及网络基础设施薄弱地区。

基本信息
目录编号:
52630
目录名称:
STARLINK-3989
国际标识:
2022-052AJ
轨道中心:
EARTH
卫星名称:
星链-3989
卫星全名:
星链-3989 (STARLINK-3989 )
卫星状态:
在轨 (已飞行1317 天)
发射日期:
2022-05-14 UTC
国别 :
美国 (US)
星等 :
--
轨道信息
数据来源 国际轨道数据
星历时间: 2025-12-20T08:52:05+0800
1天前
查看轨道信息
半长轴: 6917.893km
偏心率: 0.00019
轨道倾角: 53.217°
近地点辐角 93.239°
升交点赤经 266.700°
平近点角 266.882°
近地点: 538.441km
远地点: 541.071km
周期: 95.438分钟
每日圈数: 15.088361
详细信息
固有亮度:
5
最大亮度:
2.5
卫星平台:
Starlink v1.5
覆盖范围:
全球
运营商:
太空探索技术公司
运营商所在国:
美国
制造商(研发单位):
太空探索技术公司
制造商所在国:
美国
使用方式:
暂无
卫星简介
星链(Starlink)计划是由太空探索技术公司(SpaceX)提出的一个巨型低轨卫星互联网星座项目,计划在2019年至2024年间在太空搭建由约1.2万颗卫星组成的“星链”网络,其中1584颗将部署在地球上空550千米处的近地轨道,并从2020年开始工作。该卫星仍在工作。
2D轨道图
3D轨道图
轨道高度分析图
轨道倾角分析图
轨道综合分析图
查看轨道综合分析图